Weather History for New Braunfels, TX

Change the Weather History Date:

Sunday, March 31, 2013

  Actual Average (KSAT) Record (KSAT)
Temperature  
Mean Temperature 72 °F 66 °F  
Max Temperature 84 °F 77 °F 93 °F (1946)
Min Temperature 62 °F 54 °F 31 °F (1987)
Degree Days  
Heating Degree Days 0 3  
Month to date heating degree days 153  
Since 1 July heating degree days 1455  
Cooling Degree Days 7 3  
Month to date cooling degree days 65  
Year to date cooling degree days 91  
Growing Degree Days 22 (Base 50)    
Moisture  
Dew Point 62 °F    
Average Humidity 81    
Maximum Humidity 94    
Minimum Humidity 46    
Precipitation  
Precipitation 0.05 in 0.06 in 1.08 in (1945)
Month to date precipitation 2.31  
Year to date precipitation 5.86  
Snow  
Snow 0.00 in - - ()
Month to date snowfall  
Since 1 July snowfall  
Snow Depth -    
Sea Level Pressure  
Sea Level Pressure 29.90 in    
Wind  
Wind Speed 7 mph (South)    
Max Wind Speed 17 mph    
Max Gust Speed -    
Visibility 9 miles    
Events Rain , Thunderstorm    
T = Trace of Precipitation, MM = Missing Value Source: NWS Daily Summary

Daily Weather History Graph

Daily Weather History Graph

Search for Another Location

Airport:

Trip Planner

Search our weather history database for the weather conditions in past years. The results will help you decide how hot, cold, wet, or windy it might be!

Date:

Astronomy

Mar. 31, 2013 Rise Set
Actual Time 7:22 AM CDT 7:50 PM CDT
Civil Twilight 6:58 AM CDT 8:14 PM CDT
Nautical Twilight 6:30 AM CDT 8:42 PM CDT
Astronomical Twilight 6:02 AM CDT 9:11 PM CDT
Moon No Moon Rise 10:30 AM CDT (3/31)
Length of Visible Light 13h 15m
Length of Day
12h 27m
Waning Gibbous, 77% of the Moon is Illuminated
Mar 31
Waning Gibbous
Apr 2
Last Quarter
Apr 10
New
Apr 18
First Quarter
Apr 25
Full

Hourly Weather History & Observations

Time (CDT) Temp. Heat Index Dew Point Humidity Pressure Visibility Wind Dir Wind Speed Gust Speed Precip Events Conditions
12:51 AM 66.0 °F - 63.0 °F 90% 29.92 in 10.0 mi South 8.1 mph - N/A   Partly Cloudy
1:09 AM 64.4 °F - 62.6 °F 94% 29.94 in 10.0 mi South 6.9 mph - N/A   Mostly Cloudy
1:51 AM 63.0 °F - 61.0 °F 93% 29.92 in 9.0 mi South 4.6 mph - N/A   Mostly Cloudy
2:00 AM 62.6 °F - 60.8 °F 94% 29.94 in 9.0 mi South 3.5 mph - N/A   Mostly Cloudy
2:15 AM 62.6 °F - 60.8 °F 94% 29.93 in 8.0 mi SSW 3.5 mph - N/A   Overcast
2:44 AM 64.4 °F - 62.6 °F 94% 29.93 in 9.0 mi Calm Calm - N/A   Overcast
2:51 AM 64.9 °F - 63.0 °F 93% 29.91 in 9.0 mi SSW 3.5 mph - N/A   Overcast
3:51 AM 66.9 °F - 63.0 °F 87% 29.89 in 9.0 mi SSW 6.9 mph - N/A   Overcast
4:51 AM 66.9 °F - 63.0 °F 87% 29.88 in 9.0 mi SSW 8.1 mph - N/A   Overcast
5:39 AM 66.2 °F - 62.6 °F 88% 29.90 in 9.0 mi SSW 10.4 mph - N/A   Overcast
5:51 AM 66.0 °F - 63.0 °F 90% 29.87 in 9.0 mi South 9.2 mph - N/A   Overcast
6:44 AM 66.2 °F - 62.6 °F 88% 29.91 in 9.0 mi SSW 5.8 mph - N/A   Overcast
6:51 AM 66.0 °F - 63.0 °F 90% 29.89 in 9.0 mi SSW 4.6 mph - N/A   Overcast
7:51 AM 66.0 °F - 63.0 °F 90% 29.90 in 7.0 mi SSW 8.1 mph - N/A   Overcast
8:51 AM 66.9 °F - 63.0 °F 87% 29.92 in 9.0 mi SSW 8.1 mph - N/A   Overcast
9:24 AM 69.8 °F - 62.6 °F 78% 29.95 in 10.0 mi SW 8.1 mph - N/A   Mostly Cloudy
9:51 AM 70.0 °F - 63.0 °F 78% 29.91 in 10.0 mi SSW 13.8 mph - N/A   Overcast
9:58 AM 69.8 °F - 62.6 °F 78% 29.93 in 10.0 mi South 10.4 mph - N/A   Mostly Cloudy
10:51 AM 72.0 °F - 62.1 °F 71% 29.92 in 10.0 mi Calm Calm - N/A   Scattered Clouds
12:51 PM 79.0 °F - 62.1 °F 56% 29.90 in 10.0 mi SW 10.4 mph - N/A   Clear
1:51 PM 82.0 °F 83.0 °F 62.1 °F 51% 29.87 in 10.0 mi South 11.5 mph - N/A   Clear
2:51 PM 82.0 °F 82.7 °F 61.0 °F 49% 29.87 in 10.0 mi SW 3.5 mph - N/A   Mostly Cloudy
3:51 PM 82.9 °F 83.2 °F 60.1 °F 46% 29.83 in 10.0 mi Calm Calm - N/A   Clear
4:51 PM 78.1 °F - 61.0 °F 56% 29.87 in 10.0 mi NNE 13.8 mph - 0.00 in Rain Light Rain
5:11 PM 73.4 °F - 64.4 °F 73% 29.90 in 10.0 mi North 13.8 mph - 0.01 in Rain , Thunderstorm Light Thunderstorms and Rain
5:51 PM 71.1 °F - 64.9 °F 81% 29.86 in 8.0 mi NE 17.3 mph - 0.01 in Rain , Thunderstorm Light Thunderstorms and Rain
6:13 PM 69.8 °F - 64.4 °F 83% 29.94 in 7.0 mi NW 13.8 mph - 0.00 in Rain , Thunderstorm Light Thunderstorms and Rain
6:51 PM 69.1 °F - 63.0 °F 81% 29.83 in 10.0 mi SSE 12.7 mph - 0.04 in Rain Light Rain
7:51 PM 66.9 °F - 62.1 °F 84% 29.81 in 10.0 mi NE 4.6 mph - 0.00 in   Clear
8:51 PM 62.1 °F - 60.1 °F 93% 29.86 in 9.0 mi Calm Calm - N/A   Clear
9:51 PM 64.9 °F - 61.0 °F 87% 29.91 in 10.0 mi NE 10.4 mph - N/A   Clear
10:51 PM 64.9 °F - 61.0 °F 87% 29.93 in 10.0 mi ENE 6.9 mph - N/A   Scattered Clouds
11:51 PM 63.0 °F - 60.1 °F 90% 29.95 in 10.0 mi Calm Calm - N/A   Mostly Cloudy